Location: Gouy
(50.0008°N, 3.2556°E)
Time: 23:27:16
(UTC+00:00)

CZ-6A DEB - Visible Passes

Search period start: 11 October 2024 00:00
Search period end: 21 October 2024 00:00
Orbit: 721 x 882 km, 98.7° (Epoch: 11 October)

Date Brightness Start Highest point End Pass type
(mag) Time Alt. Az. Time Alt. Az. Time Alt. Az.
11 Oct ? 17:30:58 10° S 17:36:00 77° WSW 17:40:54 10° NNW visible
11 Oct ? 19:15:08 10° WSW 19:16:31 11° W 19:17:55 10° WNW visible
12 Oct ? 18:46:30 10° SW 18:49:59 19° W 18:53:27 10° NW visible
13 Oct ? 05:15:30 10° NE 05:18:29 16° E 05:21:30 10° SE visible
13 Oct ? 18:19:09 10° SSW 18:23:33 30° W 18:27:53 10° NNW visible
14 Oct ? 17:52:21 10° S 17:57:11 50° W 18:01:57 10° NNW visible
15 Oct ? 17:25:56 10° SSE 17:30:55 84° WSW 17:35:48 10° NNW visible
15 Oct ? 19:09:26 10° WSW 19:11:23 12° W 19:13:19 10° WNW visible
16 Oct ? 05:35:50 10° NE 05:39:50 24° E 05:43:54 10° SSE visible
16 Oct ? 18:41:10 10° SW 18:44:49 20° W 18:48:26 10° NW visible
17 Oct ? 05:10:33 10° NE 05:13:18 15° E 05:16:04 10° ESE visible
17 Oct ? 18:13:54 10° SSW 18:18:20 33° W 18:22:45 10° NNW visible
18 Oct ? 17:47:07 10° S 17:51:57 56° WSW 17:56:44 10° NNW visible
19 Oct ? 17:20:44 10° SSE 17:25:38 88° ENE 17:30:31 10° NNW visible
19 Oct ? 19:03:40 10° WSW 19:06:03 13° W 19:08:26 10° WNW visible
20 Oct ? 05:30:38 10° NE 05:34:31 22° E 05:38:28 10° SE visible
20 Oct ? 18:35:38 10° SW 18:39:27 23° W 18:43:16 10° NW visible
